SWA162 KABQ-KSAN

Flight info

Callsign SWA162
Flight time 1h 31m
Altitude 40000
Route ADYOS3 ZUN J6 DRK J96 PKE LUCKI1
Aircraft B738/M-SDE2E3GIJ4RWZ/LB1D1

Departure

Time 2026-04-22 00:33
Airport Albuquerque International Sunport (KABQ)

Arrival

Time 2026-04-22 02:04
Airport San Diego International Airport (KSAN)
Time Latitude Longitude Altitude Speed Heading
2026-04-22 00:14 35.04696 -106.61449 5320 ft 0 kts 342°
2026-04-22 00:24 35.04675 -106.61441 5315 ft 4 kts 342°
2026-04-22 00:24 35.04655 -106.61433 5312 ft 4 kts 342°
2026-04-22 00:24 35.04629 -106.61425 5317 ft 4 kts 356°
2026-04-22 00:24 35.04620 -106.61424 5320 ft 0 kts 360°
2026-04-22 00:26 35.04621 -106.61424 5320 ft 1 kts
2026-04-22 00:27 35.04626 -106.61418 5313 ft 1 kts 52°
2026-04-22 00:27 35.04625 -106.61390 5320 ft 7 kts 105°
2026-04-22 00:27 35.04586 -106.61298 5318 ft 19 kts 99°
2026-04-22 00:27 35.04580 -106.61097 5314 ft 28 kts 91°
2026-04-22 00:28 35.04579 -106.60836 5319 ft 32 kts 91°
2026-04-22 00:28 35.04577 -106.60582 5320 ft 29 kts 90°
2026-04-22 00:28 35.04575 -106.60348 5320 ft 26 kts 91°
2026-04-22 00:28 35.04572 -106.60134 5320 ft 24 kts 90°
2026-04-22 00:29 35.04578 -106.59937 5318 ft 23 kts 83°
2026-04-22 00:29 35.04586 -106.59748 5313 ft 22 kts 91°
2026-04-22 00:29 35.04582 -106.59564 5313 ft 21 kts 92°
2026-04-22 00:29 35.04583 -106.59384 5318 ft 21 kts 89°
2026-04-22 00:30 35.04583 -106.59211 5313 ft 20 kts 91°
2026-04-22 00:30 35.04581 -106.59042 5314 ft 20 kts 89°
2026-04-22 00:30 35.04581 -106.58881 5320 ft 19 kts 90°
2026-04-22 00:30 35.04579 -106.58723 5314 ft 18 kts 91°
2026-04-22 00:31 35.04578 -106.58558 5318 ft 23 kts 90°
2026-04-22 00:31 35.04576 -106.58357 5320 ft 23 kts 91°
2026-04-22 00:31 35.04457 -106.58291 5313 ft 22 kts 188°
2026-04-22 00:31 35.04412 -106.58357 5321 ft 2 kts 269°
2026-04-22 00:32 35.04411 -106.58385 5316 ft 12 kts 269°
2026-04-22 00:32 35.04415 -106.58812 5321 ft 88 kts 271°
2026-04-22 00:32 35.04419 -106.59840 5323 ft 151 kts 273°
2026-04-22 00:32 35.04458 -106.61189 5885 ft 164 kts 272°
2026-04-22 00:33 35.04510 -106.62655 6474 ft 179 kts 268°
2026-04-22 00:33 35.04522 -106.64148 7306 ft 171 kts 268°
2026-04-22 00:33 35.04530 -106.65649 7911 ft 185 kts 270°
2026-04-22 00:33 35.04564 -106.67209 8641 ft 189 kts 268°
2026-04-22 00:34 35.04517 -106.68857 9149 ft 205 kts 265°
2026-04-22 00:34 35.04429 -106.70701 9333 ft 232 kts 265°
2026-04-22 00:34 35.04367 -106.72794 9507 ft 259 kts 267°
2026-04-22 00:34 35.04345 -106.75108 9845 ft 285 kts 269°
2026-04-22 00:35 35.04351 -106.77572 10412 ft 301 kts 269°
2026-04-22 00:35 35.04369 -106.80245 10602 ft 329 kts 270°
2026-04-22 00:35 35.04413 -106.83139 10888 ft 350 kts 271°
2026-04-22 00:35 35.04523 -106.86140 11519 ft 357 kts 272°
2026-04-22 00:36 35.04643 -106.89168 12163 ft 357 kts 271°
2026-04-22 00:36 35.04758 -106.92196 13114 ft 357 kts 271°
2026-04-22 00:36 35.04773 -106.95241 13932 ft 361 kts 268°
2026-04-22 00:36 35.04685 -106.98319 14681 ft 365 kts 266°
2026-04-22 00:37 35.04570 -107.01397 15435 ft 370 kts 266°
2026-04-22 00:37 35.04453 -107.04550 16215 ft 374 kts 266°
2026-04-22 00:37 35.04377 -107.06708 16748 ft 377 kts 266°
2026-04-22 00:37 35.04239 -107.10954 17851 ft 381 kts 267°
2026-04-22 00:38 35.04138 -107.14207 18521 ft 386 kts 267°
2026-04-22 00:38 35.04037 -107.17505 19160 ft 391 kts 267°
2026-04-22 00:38 35.03970 -107.19710 19623 ft 393 kts 267°
2026-04-22 00:38 35.03869 -107.23055 20302 ft 397 kts 267°
2026-04-22 00:39 35.03765 -107.26448 20955 ft 401 kts 267°
2026-04-22 00:39 35.03660 -107.29865 21578 ft 405 kts 268°
2026-04-22 00:39 35.03556 -107.33322 22194 ft 410 kts 268°
2026-04-22 00:39 35.03451 -107.36807 22804 ft 413 kts 268°
2026-04-22 00:40 35.03343 -107.40327 23401 ft 417 kts 268°
2026-04-22 00:40 35.03233 -107.43870 23996 ft 418 kts 268°
2026-04-22 00:40 35.03122 -107.47414 24564 ft 419 kts 268°
2026-04-22 00:40 35.03008 -107.50983 25049 ft 422 kts 268°
2026-04-22 00:41 35.02892 -107.54576 25516 ft 426 kts 268°
2026-04-22 00:41 35.02776 -107.58154 25984 ft 428 kts 268°
2026-04-22 00:41 35.02656 -107.61791 26467 ft 431 kts 268°
2026-04-22 00:41 35.02535 -107.65458 26931 ft 433 kts 268°
2026-04-22 00:42 35.02412 -107.69140 27370 ft 436 kts 268°
2026-04-22 00:42 35.02287 -107.72845 27791 ft 439 kts 268°
2026-04-22 00:42 35.02159 -107.76580 28220 ft 441 kts 268°
2026-04-22 00:42 35.02030 -107.80334 28668 ft 443 kts 268°
2026-04-22 00:43 35.01900 -107.84096 29071 ft 446 kts 268°
2026-04-22 00:43 35.01767 -107.87879 29460 ft 448 kts 268°
2026-04-22 00:43 35.01632 -107.91694 29833 ft 451 kts 268°
2026-04-22 00:43 35.01496 -107.95524 30195 ft 452 kts 268°
2026-04-22 00:44 35.01358 -107.99351 30657 ft 450 kts 267°
2026-04-22 00:44 35.01220 -108.03156 31175 ft 448 kts 267°
2026-04-22 00:44 35.01083 -108.06907 31648 ft 446 kts 267°
2026-04-22 00:44 35.00942 -108.10715 32074 ft 446 kts 267°
2026-04-22 00:45 35.00803 -108.14457 32490 ft 445 kts 267°
2026-04-22 00:45 35.00661 -108.18230 32960 ft 444 kts 266°
2026-04-22 00:45 35.00519 -108.21983 33434 ft 442 kts 266°
2026-04-22 00:45 35.00376 -108.25730 33874 ft 441 kts 266°
2026-04-22 00:46 35.00232 -108.29469 34240 ft 441 kts 266°
2026-04-22 00:46 35.00088 -108.33201 34597 ft 441 kts 266°
2026-04-22 00:46 34.99942 -108.36933 34982 ft 439 kts 266°
2026-04-22 00:46 34.99796 -108.40646 35369 ft 438 kts 267°
2026-04-22 00:47 34.99648 -108.44354 35738 ft 437 kts 268°
2026-04-22 00:47 34.99501 -108.48028 36336 ft 430 kts 268°
2026-04-22 00:47 34.99354 -108.51654 36753 ft 428 kts 268°
2026-04-22 00:47 34.99207 -108.55294 36989 ft 431 kts 268°
2026-04-22 00:48 34.99058 -108.58947 37223 ft 432 kts 268°
2026-04-22 00:48 34.98907 -108.62607 37576 ft 431 kts 268°
2026-04-22 00:48 34.98756 -108.66252 37973 ft 429 kts 268°
2026-04-22 00:48 34.98604 -108.69879 38330 ft 429 kts 268°
2026-04-22 00:49 34.98451 -108.73514 38635 ft 428 kts 268°
2026-04-22 00:49 34.98297 -108.77136 38888 ft 428 kts 267°
2026-04-22 00:49 34.98143 -108.80752 39193 ft 426 kts 267°
2026-04-22 00:49 34.97988 -108.84348 39521 ft 423 kts 267°
2026-04-22 00:50 34.97835 -108.87882 39790 ft 422 kts 267°
2026-04-22 00:50 34.97520 -108.95077 39881 ft 427 kts 267°
2026-04-22 00:51 34.97199 -109.02312 39872 ft 425 kts 267°
2026-04-22 00:51 34.96877 -109.09457 39887 ft 421 kts 267°
2026-04-22 00:52 34.96550 -109.16569 39891 ft 420 kts 266°
2026-04-22 00:52 34.96108 -109.23667 39884 ft 420 kts 265°
2026-04-22 00:53 34.95618 -109.30762 39883 ft 419 kts 265°
2026-04-22 00:53 34.95133 -109.37844 39881 ft 419 kts 265°
2026-04-22 00:54 34.94653 -109.44922 39887 ft 419 kts 265°
2026-04-22 00:54 34.94175 -109.51961 39894 ft 419 kts 265°
2026-04-22 00:55 34.93690 -109.59042 39883 ft 419 kts 265°
2026-04-22 00:55 34.92954 -109.69679 39890 ft 420 kts 265°
2026-04-22 00:56 34.92458 -109.76761 39893 ft 420 kts 265°
2026-04-22 00:56 34.91958 -109.83853 39895 ft 420 kts 265°
2026-04-22 00:57 34.91454 -109.90931 39895 ft 419 kts 265°
2026-04-22 00:57 34.90946 -109.98020 39904 ft 419 kts 265°
2026-04-22 00:58 34.90433 -110.05104 39901 ft 419 kts 265°
2026-04-22 00:58 34.89917 -110.12183 39915 ft 419 kts 265°
2026-04-22 00:59 34.89397 -110.19261 39914 ft 419 kts 264°
2026-04-22 00:59 34.88872 -110.26340 39926 ft 419 kts 264°
2026-04-22 01:00 34.88347 -110.33363 39929 ft 419 kts 264°
2026-04-22 01:00 34.87814 -110.40424 39941 ft 419 kts 264°
2026-04-22 01:01 34.87279 -110.47486 39963 ft 419 kts 264°
2026-04-22 01:01 34.86740 -110.54549 39944 ft 418 kts 264°
2026-04-22 01:02 34.86197 -110.61601 39953 ft 418 kts 264°
2026-04-22 01:02 34.85651 -110.68631 40045 ft 417 kts 264°
2026-04-22 01:03 34.85101 -110.75652 40046 ft 416 kts 264°
2026-04-22 01:03 34.84548 -110.82666 40049 ft 415 kts 263°
2026-04-22 01:04 34.83992 -110.89661 40027 ft 415 kts 263°
2026-04-22 01:04 34.83432 -110.96640 40009 ft 414 kts 263°
2026-04-22 01:05 34.82870 -111.03608 40009 ft 413 kts 263°
2026-04-22 01:05 34.82305 -111.10560 39997 ft 412 kts 263°
2026-04-22 01:06 34.81741 -111.17454 39991 ft 412 kts 263°
2026-04-22 01:06 34.81167 -111.24415 40006 ft 413 kts 263°
2026-04-22 01:07 34.80588 -111.31384 40014 ft 414 kts 263°
2026-04-22 01:07 34.80003 -111.38382 40005 ft 416 kts 263°
2026-04-22 01:08 34.79416 -111.45353 40001 ft 418 kts 263°
2026-04-22 01:08 34.78819 -111.52398 40016 ft 419 kts 263°
2026-04-22 01:09 34.78216 -111.59464 40069 ft 420 kts 263°
2026-04-22 01:09 34.77608 -111.66537 40084 ft 420 kts 263°
2026-04-22 01:10 34.76997 -111.73610 40097 ft 419 kts 263°
2026-04-22 01:10 34.76383 -111.80650 40106 ft 418 kts 262°
2026-04-22 01:11 34.75768 -111.87669 40093 ft 417 kts 262°
2026-04-22 01:11 34.75153 -111.94622 40056 ft 415 kts 262°
2026-04-22 01:12 34.74533 -112.01599 40041 ft 414 kts 262°
2026-04-22 01:12 34.73911 -112.08546 39999 ft 412 kts 262°
2026-04-22 01:13 34.73289 -112.15461 40060 ft 410 kts 262°
2026-04-22 01:13 34.72667 -112.22318 40070 ft 406 kts 262°
2026-04-22 01:14 34.72049 -112.29093 40088 ft 403 kts 262°
2026-04-22 01:14 34.71428 -112.35847 40107 ft 401 kts 262°
2026-04-22 01:15 34.70807 -112.42568 40106 ft 399 kts 262°
2026-04-22 01:15 34.70022 -112.49225 40100 ft 396 kts 253°
2026-04-22 01:16 34.69202 -112.52413 39954 ft 395 kts 251°
2026-04-22 01:16 34.68350 -112.55596 39948 ft 396 kts 251°
2026-04-22 01:16 34.66647 -112.61976 39953 ft 398 kts 251°
2026-04-22 01:17 34.64956 -112.68352 39948 ft 400 kts 251°
2026-04-22 01:17 34.63247 -112.74809 39942 ft 403 kts 251°
2026-04-22 01:18 34.61527 -112.81303 39937 ft 405 kts 251°
2026-04-22 01:18 34.59796 -112.87826 39933 ft 406 kts 251°
2026-04-22 01:19 34.58056 -112.94364 39925 ft 407 kts 251°
2026-04-22 01:19 34.56321 -113.00869 39923 ft 407 kts 251°
2026-04-22 01:20 34.54572 -113.07407 39920 ft 408 kts 251°
2026-04-22 01:20 34.52820 -113.13945 39919 ft 407 kts 251°
2026-04-22 01:21 34.51070 -113.20458 39905 ft 406 kts 251°
2026-04-22 01:21 34.49321 -113.26949 39897 ft 404 kts 251°
2026-04-22 01:22 34.47574 -113.33419 39894 ft 403 kts 251°
2026-04-22 01:22 34.45827 -113.39875 39882 ft 402 kts 251°
2026-04-22 01:23 34.44083 -113.46304 39899 ft 401 kts 251°
2026-04-22 01:23 34.42354 -113.52663 39878 ft 400 kts 251°
2026-04-22 01:24 34.40611 -113.59057 39874 ft 400 kts 250°
2026-04-22 01:24 34.38866 -113.65446 39881 ft 399 kts 250°
2026-04-22 01:25 34.37118 -113.71828 39880 ft 399 kts 250°
2026-04-22 01:25 34.35664 -113.77128 39886 ft 399 kts 250°
2026-04-22 01:26 34.33913 -113.83493 39877 ft 398 kts 250°
2026-04-22 01:26 34.32160 -113.89853 39864 ft 398 kts 250°
2026-04-22 01:27 34.30407 -113.96199 39857 ft 397 kts 250°
2026-04-22 01:27 34.28655 -114.02523 39869 ft 396 kts 250°
2026-04-22 01:28 34.26902 -114.08843 39865 ft 395 kts 250°
2026-04-22 01:28 34.25148 -114.15142 39856 ft 395 kts 250°
2026-04-22 01:29 34.23402 -114.21395 39862 ft 394 kts 250°
2026-04-22 01:29 34.21644 -114.27674 39862 ft 394 kts 250°
2026-04-22 01:30 34.19889 -114.33930 39865 ft 393 kts 250°
2026-04-22 01:30 34.18128 -114.40189 39882 ft 393 kts 250°
2026-04-22 01:31 34.16366 -114.46440 39862 ft 393 kts 250°
2026-04-22 01:31 34.14602 -114.52684 39865 ft 393 kts 250°
2026-04-22 01:32 34.12838 -114.58915 39867 ft 392 kts 250°
2026-04-22 01:32 34.11073 -114.65136 39869 ft 392 kts 250°
2026-04-22 01:33 34.09052 -114.71174 39879 ft 390 kts 242°
2026-04-22 01:33 34.06446 -114.76921 39882 ft 390 kts 241°
2026-04-22 01:34 34.03835 -114.82664 39878 ft 391 kts 242°
2026-04-22 01:34 34.01259 -114.88447 39885 ft 391 kts 242°
2026-04-22 01:35 33.98698 -114.94228 39887 ft 391 kts 242°
2026-04-22 01:35 33.96133 -115.00008 39888 ft 391 kts 242°
2026-04-22 01:36 33.93572 -115.05746 39905 ft 391 kts 242°
2026-04-22 01:36 33.90990 -115.11507 39898 ft 390 kts 242°
2026-04-22 01:37 33.88408 -115.17259 39900 ft 390 kts 242°
2026-04-22 01:37 33.85827 -115.23003 39901 ft 390 kts 242°
2026-04-22 01:38 33.83245 -115.28739 39904 ft 389 kts 242°
2026-04-22 01:38 33.80674 -115.34442 39497 ft 394 kts 241°
2026-04-22 01:39 33.79366 -115.37339 38943 ft 393 kts 241°
2026-04-22 01:39 33.78064 -115.40222 38325 ft 392 kts 241°
2026-04-22 01:39 33.76764 -115.43096 37611 ft 391 kts 241°
2026-04-22 01:39 33.75467 -115.45962 36966 ft 389 kts 241°
2026-04-22 01:40 33.74176 -115.48813 36224 ft 388 kts 241°
2026-04-22 01:40 33.72885 -115.51660 35567 ft 387 kts 242°
2026-04-22 01:40 33.71602 -115.54513 34776 ft 389 kts 242°
2026-04-22 01:40 33.70325 -115.57411 33999 ft 397 kts 242°
2026-04-22 01:41 33.69024 -115.60380 33108 ft 406 kts 242°
2026-04-22 01:41 33.67716 -115.63361 32505 ft 400 kts 242°
2026-04-22 01:41 33.66423 -115.66300 31921 ft 395 kts 243°
2026-04-22 01:41 33.65146 -115.69196 31355 ft 390 kts 242°
2026-04-22 01:42 33.63884 -115.72051 30805 ft 385 kts 242°
2026-04-22 01:42 33.62636 -115.74874 30260 ft 380 kts 242°
2026-04-22 01:42 33.61339 -115.77617 29701 ft 376 kts 238°
2026-04-22 01:42 33.59884 -115.80190 29137 ft 371 kts 236°
2026-04-22 01:43 33.58393 -115.82686 28581 ft 365 kts 236°
2026-04-22 01:43 33.56922 -115.85146 28038 ft 362 kts 236°
2026-04-22 01:43 33.55456 -115.87632 27482 ft 369 kts 236°
2026-04-22 01:43 33.53985 -115.90161 26911 ft 368 kts 237°
2026-04-22 01:44 33.52533 -115.92669 26347 ft 363 kts 237°
2026-04-22 01:44 33.51102 -115.95145 25853 ft 359 kts 237°
2026-04-22 01:44 33.49708 -115.97553 25419 ft 353 kts 237°
2026-04-22 01:44 33.48302 -115.99980 24988 ft 348 kts 237°
2026-04-22 01:45 33.46912 -116.02380 24557 ft 353 kts 237°
2026-04-22 01:45 33.45520 -116.04783 24137 ft 357 kts 237°
2026-04-22 01:45 33.44099 -116.07231 23675 ft 357 kts 237°
2026-04-22 01:45 33.42682 -116.09670 23180 ft 355 kts 237°
2026-04-22 01:46 33.41275 -116.12088 22714 ft 352 kts 237°
2026-04-22 01:46 33.39878 -116.14489 22280 ft 350 kts 237°
2026-04-22 01:46 33.38492 -116.16869 21837 ft 347 kts 237°
2026-04-22 01:46 33.37118 -116.19228 21427 ft 345 kts 236°
2026-04-22 01:47 33.35746 -116.21583 21006 ft 345 kts 236°
2026-04-22 01:47 33.34333 -116.23894 20585 ft 346 kts 230°
2026-04-22 01:47 33.32486 -116.25770 20161 ft 351 kts 215°
2026-04-22 01:47 33.30325 -116.27152 19765 ft 353 kts 211°
2026-04-22 01:48 33.28111 -116.28435 19347 ft 354 kts 210°
2026-04-22 01:48 33.25890 -116.29698 18925 ft 354 kts 210°
2026-04-22 01:48 33.23681 -116.30957 18483 ft 350 kts 210°
2026-04-22 01:48 33.21529 -116.32195 18035 ft 346 kts 210°
2026-04-22 01:49 33.19373 -116.33443 17577 ft 343 kts 210°
2026-04-22 01:49 33.17239 -116.34685 17149 ft 339 kts 210°
2026-04-22 01:49 33.15125 -116.35919 16723 ft 337 kts 210°
2026-04-22 01:49 33.13020 -116.37148 16316 ft 335 kts 210°
2026-04-22 01:50 33.10931 -116.38369 15935 ft 332 kts 210°
2026-04-22 01:50 33.08860 -116.39577 15531 ft 330 kts 210°
2026-04-22 01:50 33.06808 -116.40774 15147 ft 328 kts 210°
2026-04-22 01:50 33.04782 -116.41957 14754 ft 328 kts 211°
2026-04-22 01:51 33.02731 -116.43153 14337 ft 328 kts 210°
2026-04-22 01:51 33.00699 -116.44361 13939 ft 322 kts 214°
2026-04-22 01:51 32.98913 -116.45904 13536 ft 313 kts 223°
2026-04-22 01:51 32.97283 -116.47588 13115 ft 307 kts 224°
2026-04-22 01:52 32.95696 -116.49244 12733 ft 300 kts 224°
2026-04-22 01:52 32.94147 -116.50846 12404 ft 288 kts 224°
2026-04-22 01:52 32.92662 -116.52365 12063 ft 276 kts 224°
2026-04-22 01:52 32.91234 -116.53816 11721 ft 264 kts 224°
2026-04-22 01:53 32.89860 -116.55208 11420 ft 255 kts 224°
2026-04-22 01:53 32.88525 -116.56556 11137 ft 248 kts 224°
2026-04-22 01:53 32.87226 -116.57866 10847 ft 244 kts 223°
2026-04-22 01:53 32.85929 -116.59173 10558 ft 243 kts 223°
2026-04-22 01:54 32.84655 -116.60456 10240 ft 236 kts 223°
2026-04-22 01:54 32.83422 -116.61697 9950 ft 228 kts 223°
2026-04-22 01:54 32.82214 -116.62915 9660 ft 228 kts 223°
2026-04-22 01:54 32.81002 -116.64135 9372 ft 228 kts 223°
2026-04-22 01:55 32.79790 -116.65355 9079 ft 229 kts 223°
2026-04-22 01:55 32.78583 -116.66569 8783 ft 224 kts 223°
2026-04-22 01:55 32.77445 -116.67774 8493 ft 215 kts 232°
2026-04-22 01:55 32.76684 -116.69227 8256 ft 208 kts 242°
2026-04-22 01:56 32.75982 -116.70741 8001 ft 210 kts 242°
2026-04-22 01:56 32.75271 -116.72255 7760 ft 210 kts 242°
2026-04-22 01:56 32.74553 -116.73778 7505 ft 213 kts 242°
2026-04-22 01:56 32.73805 -116.75361 7246 ft 226 kts 242°
2026-04-22 01:57 32.73019 -116.77025 6982 ft 235 kts 242°
2026-04-22 01:57 32.72214 -116.78723 6675 ft 236 kts 243°
2026-04-22 01:57 32.71408 -116.80423 6382 ft 235 kts 243°
2026-04-22 01:57 32.70622 -116.82121 6067 ft 234 kts 246°
2026-04-22 01:58 32.70026 -116.83912 5798 ft 232 kts 252°
2026-04-22 01:58 32.69486 -116.85713 5524 ft 231 kts 252°
2026-04-22 01:58 32.68944 -116.87504 5238 ft 230 kts 251°
2026-04-22 01:58 32.68427 -116.89258 5005 ft 225 kts 252°
2026-04-22 01:59 32.67921 -116.90997 4745 ft 224 kts 252°
2026-04-22 01:59 32.67426 -116.92762 4461 ft 226 kts 257°
2026-04-22 01:59 32.67506 -116.94579 4178 ft 216 kts 286°
2026-04-22 01:59 32.67935 -116.96306 3909 ft 200 kts 284°
2026-04-22 02:00 32.68267 -116.97788 3648 ft 194 kts 284°
2026-04-22 02:00 32.68624 -116.99329 3402 ft 192 kts 284°
2026-04-22 02:00 32.68983 -117.00843 3156 ft 188 kts 285°
2026-04-22 02:00 32.69336 -117.02314 2944 ft 182 kts 284°
2026-04-22 02:01 32.69673 -117.03710 2736 ft 169 kts 284°
2026-04-22 02:01 32.69980 -117.04988 2505 ft 157 kts 284°
2026-04-22 02:01 32.70276 -117.06212 2300 ft 154 kts 284°
2026-04-22 02:01 32.70570 -117.07434 2163 ft 151 kts 284°
2026-04-22 02:02 32.70861 -117.08642 1931 ft 149 kts 284°
2026-04-22 02:02 32.71135 -117.09775 1715 ft 135 kts 283°
2026-04-22 02:02 32.71384 -117.10807 1499 ft 125 kts 283°
2026-04-22 02:02 32.71628 -117.11822 1329 ft 132 kts 283°
2026-04-22 02:03 32.71885 -117.12886 1113 ft 135 kts 284°
2026-04-22 02:03 32.72151 -117.13952 885 ft 136 kts 283°
2026-04-22 02:03 32.72430 -117.15027 662 ft 138 kts 282°
2026-04-22 02:03 32.72692 -117.16143 515 ft 143 kts 281°
2026-04-22 02:04 32.73203 -117.18328 54 ft 124 kts 282°
2026-04-22 02:04 32.73413 -117.19207 21 ft 88 kts 286°
2026-04-22 02:04 32.73513 -117.19658 26 ft 25 kts 287°
2026-04-22 02:05 32.73534 -117.19805 24 ft 14 kts 233°
2026-04-22 02:05 32.73494 -117.19856 23 ft 7 kts 225°
2026-04-22 02:05 32.73487 -117.19864 22 ft 2 kts 225°
2026-04-22 02:05 32.73468 -117.19916 22 ft 13 kts 249°
2026-04-22 02:06 32.73387 -117.19975 22 ft 15 kts 192°
2026-04-22 02:06 32.73310 -117.19976 22 ft 9 kts 136°
2026-04-22 02:06 32.73300 -117.19919 22 ft 5 kts 95°
2026-04-22 02:06 32.73298 -117.19892 22 ft 0 kts 95°